Location: Roland
(31.1349°N, 85.4372°W)
Time: 02:11:13
(UTC+00:00)

S-56A Canister/Altair - Pass Details

Date: 27 April 2021
Orbit: 632 x 2500 km, 38.9° (Epoch: 06 May)

Event Time Altitude Azimuth Distance (km) Brightness Sun altitude
Rises 01:53:45 0° 239° (WSW) 5,951 12.4 -19.6°
Reaches altitude 10° 01:57:57 10° 239° (WSW) 4,766 11.9 -20.4°
Maximum altitude 02:10:49 85° 153° (SSE) 1,693 9.1 -22.7°
Enters shadow 02:18:36 13° 66° (ENE) 3,044 10.3 -24.1°
